カタログに戻る

STARLINK-33728

運用中通信VLEO
NORAD 63715·PAYLOAD·🇺🇸 United States

打ち上げ Apr 28, 2025 から Vandenberg Space Force Base

Loading…

次のパス (今後24時間)

TLE

最新Source: CelesTrak SupGP

元期: Sep 15, 2026, 03:15 UTC

1 63715C 25087U   26258.13590278 -.00019576  00000+0 -57827-3 0  2581
2 63715  53.1607  58.7522 0001110  76.9914  28.1535 15.34406618    17

AllMySatでSTARLINK-33728をリアルタイム追跡

Download on the App Store